Regional Weather Roundup
Issued by NWS

Home | Current Version | Previous Version | Text Only | Print | Product List | Glossary Off
Versions: 1 2 3 4 5 6 7 8 9 10 11 12 13 14 15 16 17 18 19 20 21 22 23 24 25 26 27 28 29 30 31 32 33 34 35 36 37 38 39 40 41 42 43 44 45 46 47 48 49 50

000
ASUS43 KLMK 201310
RWRKY
KENTUCKY REGIONAL WEATHER ROUNDUP
NATIONAL WEATHER SERVICE LOUISVILLE KY
800 AM EST FRI JAN 20 2017

NOTE "FAIR" INDICATES FEW OR NO CLOUDS BELOW 12,000 FEET
WITH NO SIGNIFICANT WEATHER AND/OR OBSTRUCTIONS TO VISIBILITY.

KYZ001>023-026-027-061>063-070>075-201400-
WESTERN AND SOUTH CENTRAL KENTUCKY

CITY           SKY/WX    TMP DP  RH WIND       PRES   REMARKS
PADUCAH        CLOUDY    54  49  83 SW8       29.71R
HENDERSON      CLOUDY    54  48  82 SW12      29.69R
OWENSBORO      CLOUDY    55  52  89 SW10      29.71R
HOPKINSVILLE   MOCLDY    55  55 100 SW9       29.74R
BOWLING GREEN  CLOUDY    57  54  89 S9        29.75R
GLASGOW        CLOUDY    55  55 100 S5        29.76R
$$

KYZ024-025-028>034-038-045-046-053-201400-
NORTH CENTRAL KENTUCKY

CITY           SKY/WX    TMP DP  RH WIND       PRES   REMARKS
LOUISVILLE/SDF CLOUDY    57  53  86 SW13G18   29.70R
LOUISVILLE/LOU CLOUDY    57  53  86 SW6       29.70R
FORT KNOX      CLOUDY    55  55 100 S14       29.70R
$$

KYZ035>037-039>044-047>052-055>060-089>105-201400-
NORTHEAST KENTUCKY

CITY           SKY/WX    TMP DP  RH WIND       PRES   REMARKS
LEXINGTON      CLOUDY    56  53  90 SW13      29.73R
COVINGTON      CLOUDY    54  53  97 SW12G17   29.66R
FRANKFORT      CLOUDY    56  52  86 SW10      29.71R
$$

KYZ054-064>069-076>088-106>120-201400-
SOUTHEAST KENTUCKY

CITY           SKY/WX    TMP DP  RH WIND       PRES   REMARKS
JACKSON        CLOUDY    54  51  90 VRB6      29.76R
LONDON         CLOUDY    51  49  92 CALM      29.77R
SOMERSET       CLOUDY    52  52 100 CALM      29.78R
MIDDLESBORO    MOCLDY    49  49 100 CALM      29.80R
MONTICELLO     CLOUDY    57  55  93 W17       29.79R
$$





USA.gov is the U.S. government's official web portal to all federal, state and local government web resources and services.